• In Netherlands
  • List of Countries
  • For 7 days
  • Water Temperature
  • Satellite Maps
  • Weather Map
  • Weather Widgets
  • user-avatar
    Login

    Hourly Weather Escaldes-Engordany

    Today, 20 January, Friday

    Time Temperature Precipitation Wind Pressure Humidity
    00:00 -7°C° 0 mm 2 mps 639 mmHg 85%
    01:00 -7°C° 0 mm 2 mps 638 mmHg 86%
    02:00 -8°C° 0 mm 2 mps 638 mmHg 86%
    03:00 -8°C° 0 mm 2 mps 638 mmHg 87%
    04:00 -8°C° 0.1 mm 2 mps 638 mmHg 87%
    05:00 -8°C° 0.1 mm 2 mps 638 mmHg 87%
    06:00 -8°C° 0.1 mm 2 mps 638 mmHg 88%
    07:00 -6°C° 0.1 mm 2 mps 638 mmHg 85%
    08:00 -5°C° 0.1 mm 2 mps 639 mmHg 83%
    09:00 -3°C° 0.1 mm 2 mps 640 mmHg 80%
    10:00 -2°C° 0.1 mm 2 mps 640 mmHg 78%
    11:00 -1°C° 0.1 mm 2 mps 641 mmHg 76%
    12:00 0°C° 0.1 mm 3 mps 641 mmHg 74%
    13:00 0°C° 0.2 mm 3 mps 641 mmHg 75%
    14:00 +1°C° 0.2 mm 2 mps 640 mmHg 77%
    15:00 +1°C° 0.2 mm 2 mps 640 mmHg 78%
    16:00 -1°C° 0.4 mm 2 mps 639 mmHg 82%
    17:00 -3°C° 0.4 mm 2 mps 639 mmHg 87%
    18:00 -2°C° 0.4 mm 1 mps 638 mmHg 91%
    19:00 -2°C° 0.5 mm 1 mps 639 mmHg 91%
    20:00 -2°C° 0.5 mm 1 mps 639 mmHg 91%
    21:00 -2°C° 0.5 mm 1 mps 639 mmHg 91%
    22:00 -3°C° 0.3 mm 1 mps 639 mmHg 91%
    23:00 -5°C° 0.3 mm 2 mps 638 mmHg 92%

    Tomorrow, 21 January, Saturday

    Time Temperature Precipitation Wind Pressure Humidity
    00:00 -5°C° 0.3 mm 2 mps 638 mmHg 92%
    01:00 -5°C° 0.2 mm 2 mps 638 mmHg 92%
    02:00 -5°C° 0.2 mm 2 mps 638 mmHg 91%
    03:00 -5°C° 0.2 mm 2 mps 638 mmHg 91%
    04:00 -5°C° 0.1 mm 2 mps 638 mmHg 91%
    05:00 -5°C° 0.1 mm 2 mps 638 mmHg 91%
    06:00 -5°C° 0.1 mm 2 mps 638 mmHg 91%
    07:00 -4°C° 0 mm 2 mps 638 mmHg 88%
    08:00 -3°C° 0 mm 2 mps 639 mmHg 85%
    09:00 -2°C° 0 mm 2 mps 640 mmHg 82%
    10:00 -1°C° 0 mm 2 mps 640 mmHg 78%
    11:00 +1°C° 0 mm 2 mps 640 mmHg 75%
    12:00 +2°C° 0 mm 2 mps 640 mmHg 72%
    13:00 +2°C° 0 mm 2 mps 640 mmHg 73%
    14:00 +2°C° 0 mm 2 mps 639 mmHg 75%
    15:00 +2°C° 0 mm 2 mps 639 mmHg 77%
    16:00 -1°C° 0 mm 2 mps 638 mmHg 81%
    17:00 -3°C° 0 mm 2 mps 638 mmHg 86%
    18:00 -5°C° 0 mm 2 mps 637 mmHg 90%
    19:00 -5°C° 0 mm 2 mps 637 mmHg 88%
    20:00 -5°C° 0 mm 2 mps 637 mmHg 86%
    21:00 -6°C° 0 mm 2 mps 637 mmHg 84%
    22:00 -6°C° 0 mm 2 mps 637 mmHg 82%
    23:00 -6°C° 0 mm 2 mps 637 mmHg 80%

    Day after tomorrow, 22 January, Sunday

    Time Temperature Precipitation Wind Pressure Humidity
    00:00 -6°C° 0 mm 2 mps 637 mmHg 78%
    01:00 -6°C° 0 mm 2 mps 636 mmHg 77%
    02:00 -5°C° 0 mm 2 mps 636 mmHg 76%
    03:00 -5°C° 0 mm 2 mps 636 mmHg 75%
    04:00 -5°C° 0.2 mm 2 mps 636 mmHg 76%
    05:00 -5°C° 0.2 mm 2 mps 636 mmHg 77%
    06:00 -4°C° 0.2 mm 2 mps 636 mmHg 77%
    07:00 -4°C° 0.4 mm 2 mps 637 mmHg 78%
    08:00 -3°C° 0.4 mm 2 mps 637 mmHg 79%
    09:00 -3°C° 0.4 mm 2 mps 638 mmHg 80%
    10:00 -2°C° 0.2 mm 2 mps 638 mmHg 79%
    11:00 -1°C° 0.2 mm 2 mps 638 mmHg 77%
    12:00 +1°C° 0.2 mm 2 mps 638 mmHg 75%
    13:00 +1°C° 0.2 mm 2 mps 638 mmHg 76%
    14:00 +1°C° 0.2 mm 2 mps 638 mmHg 78%
    15:00 +1°C° 0.2 mm 2 mps 638 mmHg 79%
    16:00 +1°C° 0.3 mm 1 mps 637 mmHg 83%
    17:00 0°C° 0.3 mm 1 mps 637 mmHg 88%
    18:00 -2°C° 0.3 mm 1 mps 637 mmHg 92%
    19:00 -2°C° 0.4 mm 1 mps 637 mmHg 92%
    20:00 -2°C° 0.4 mm 1 mps 637 mmHg 92%
    21:00 -4°C° 0.4 mm 2 mps 637 mmHg 92%
    22:00 -4°C° 0.4 mm 2 mps 637 mmHg 92%
    23:00 -4°C° 0.4 mm 2 mps 637 mmHg 92%

    23 January, Monday

    Time Temperature Precipitation Wind Pressure Humidity
    00:00 -4°C° 0.4 mm 2 mps 636 mmHg 92%
    01:00 -4°C° 0.4 mm 2 mps 636 mmHg 92%
    02:00 -4°C° 0.4 mm 2 mps 636 mmHg 92%
    03:00 -4°C° 0.4 mm 2 mps 636 mmHg 92%
    04:00 -4°C° 0.5 mm 2 mps 636 mmHg 92%
    05:00 -4°C° 0.5 mm 2 mps 636 mmHg 92%
    06:00 -4°C° 0.5 mm 2 mps 636 mmHg 92%
    07:00 -4°C° 0.5 mm 2 mps 637 mmHg 90%
    08:00 -3°C° 0.5 mm 2 mps 637 mmHg 89%
    09:00 -2°C° 0.5 mm 2 mps 638 mmHg 87%
    10:00 -2°C° 0.2 mm 2 mps 638 mmHg 85%
    11:00 -1°C° 0.2 mm 2 mps 638 mmHg 82%
    12:00 +1°C° 0.2 mm 2 mps 638 mmHg 80%
    13:00 +1°C° 0.1 mm 2 mps 638 mmHg 80%
    14:00 +1°C° 0.1 mm 2 mps 638 mmHg 81%
    15:00 +1°C° 0.1 mm 2 mps 638 mmHg 81%
    16:00 -2°C° 0 mm 2 mps 638 mmHg 85%
    17:00 -3°C° 0 mm 2 mps 637 mmHg 89%
    18:00 -5°C° 0 mm 2 mps 637 mmHg 93%
    19:00 -5°C° 0 mm 2 mps 637 mmHg 92%
    20:00 -6°C° 0 mm 2 mps 637 mmHg 90%
    21:00 -6°C° 0 mm 2 mps 637 mmHg 89%
    22:00 -6°C° 0 mm 2 mps 637 mmHg 87%
    23:00 -6°C° 0 mm 2 mps 636 mmHg 85%

    24 January, Tuesday

    Time Temperature Precipitation Wind Pressure Humidity
    00:00 -6°C° 0 mm 2 mps 636 mmHg 83%
    01:00 -6°C° 0 mm 2 mps 636 mmHg 83%
    02:00 -7°C° 0 mm 2 mps 636 mmHg 82%
    03:00 -7°C° 0 mm 2 mps 636 mmHg 82%
    04:00 -7°C° 0 mm 2 mps 636 mmHg 81%
    05:00 -8°C° 0 mm 3 mps 636 mmHg 80%
    06:00 -8°C° 0 mm 3 mps 636 mmHg 79%
    07:00 -7°C° 0 mm 3 mps 636 mmHg 77%
    08:00 -5°C° 0 mm 2 mps 637 mmHg 74%
    09:00 -4°C° 0 mm 2 mps 637 mmHg 72%
    10:00 -2°C° 0 mm 2 mps 638 mmHg 69%
    11:00 -1°C° 0 mm 2 mps 638 mmHg 67%
    12:00 +2°C° 0 mm 2 mps 639 mmHg 64%
    13:00 +1°C° 0 mm 2 mps 638 mmHg 66%
    14:00 +1°C° 0 mm 2 mps 638 mmHg 68%
    15:00 +1°C° 0 mm 2 mps 638 mmHg 69%
    16:00 -3°C° 0 mm 2 mps 637 mmHg 73%
    17:00 -5°C° 0 mm 2 mps 636 mmHg 78%
    18:00 -8°C° 0 mm 2 mps 635 mmHg 82%
    19:00 -8°C° 0 mm 2 mps 635 mmHg 79%
    20:00 -8°C° 0 mm 2 mps 635 mmHg 76%
    21:00 -8°C° 0 mm 2 mps 635 mmHg 73%
    22:00 -9°C° 0 mm 2 mps 635 mmHg 70%
    23:00 -9°C° 0 mm 1 mps 635 mmHg 67%

    25 January, Wednesday

    Time Temperature Precipitation Wind Pressure Humidity
    00:00 -9°C° 0 mm 1 mps 634 mmHg 63%
    01:00 -9°C° 0 mm 1 mps 634 mmHg 61%
    02:00 -10°C° 0 mm 1 mps 634 mmHg 58%
    03:00 -10°C° 0 mm 1 mps 633 mmHg 56%
    04:00 -10°C° 0 mm 0 mps 633 mmHg 54%
    05:00 -10°C° 0 mm 0 mps 633 mmHg 53%
    06:00 -10°C° 0 mm 0 mps 633 mmHg 51%
    07:00 -7°C° 0 mm 0 mps 635 mmHg 52%
    08:00 -4°C° 0 mm 0 mps 636 mmHg 53%
    09:00 -1°C° 0 mm 0 mps 637 mmHg 54%
    10:00 +1°C° 0 mm 0 mps 638 mmHg 54%
    11:00 +2°C° 0 mm 0 mps 639 mmHg 55%
    12:00 +5°C° 0 mm 1 mps 639 mmHg 55%
    13:00 +5°C° 0 mm 1 mps 639 mmHg 59%
    14:00 +5°C° 0 mm 1 mps 639 mmHg 63%
    15:00 +5°C° 0 mm 1 mps 639 mmHg 67%
    16:00 +1°C° 0 mm 1 mps 638 mmHg 72%
    17:00 -3°C° 0 mm 1 mps 636 mmHg 77%
    18:00 -7°C° 0 mm 1 mps 635 mmHg 82%
    19:00 -7°C° 0 mm 1 mps 636 mmHg 80%
    20:00 -7°C° 0 mm 1 mps 636 mmHg 77%
    21:00 -6°C° 0 mm 1 mps 636 mmHg 75%
    22:00 -6°C° 0 mm 1 mps 637 mmHg 74%
    23:00 -7°C° 0 mm 1 mps 637 mmHg 73%
    Show more